INTELSAT 4-F5 1 06052U 72041A 21065.83088871 .00000112 00000-0 00000-0 0 9998 2 06052 10.3246 307.8929 0001277 139.6236 220.3601 1.00113861 27358 ATLAS CENTAUR R/B 1 06058U 72041B 21064.45516096 .00000071 00000-0 -55584-4 0 9992 2 06058 26.0680 165.8068 7232160 90.8203 344.6130 2.22331959394407